Location: Coed Ely
(51.5661°N, 3.4150°W)
Time: 19:58:51
(UTC+00:00)

Cosmos 389 Rocket - Pass Details

Date: 28 January 2021
Orbit: 440 x 474 km, 81.1° (Epoch: 27 February)

Event Time Altitude Azimuth Distance (km) Brightness Sun altitude
Rises 19:01:14 0° 349° (N) 2,510 6.3 -19.3°
Reaches altitude 10° 19:03:21 10° 353° (N) 1,623 5.2 -19.6°
Enters shadow 19:05:46 39° 9° (N) 705 3.2 -20.0°
